Погода в Шицюаньхэ

Китай     32°12′47″N   80°02′28″E
темп.,
°C
ветер,
м/с
пор.,
м/с
влажн.,
%
обл.,
%
осадки,
мм/ч
давл.,
гПа
погр.,
м
7 марта, вс
вс723:00−5ююз453293 0.0 1017749
02:00−7юз344660 0.0 1020143
05:00−8ююз336254 0.0 1019135
08:00−8ю566076 0.1 1019407
11:00−9ююз228276 0.4 1020288
14:00−4юз364183 0.7 10171786
17:00−2юз7133284 0.4 10122345
20:00−4юз6134766 0.4 10131624
8 марта, пн
пн823:00−6ююз495543 0.0 1019945
02:00−8ююз337035 0.1 1019202
05:00−9ююв238696 0.8 1017207
08:00−10ю338281 1.2 101853
11:00−7юз355737 0.0 1021669
14:00−5юз5103950 0.1 10191988
17:00−4юз6123248 0.1 10182499
20:00−5зюз383624 0.1 10191599
9 марта, вт
вт923:00−8ююз33580 0.0 1025145
02:00−10ююз33650 0.0 1026126
05:00−11ююз33690 0.0 102793
08:00−12ю33711 0.0 102961
11:00−10ююз23580 0.0 1030354
14:00−6юз34310 0.0 10261249
17:00−4юз58230 0.0 10221584
20:00−6юз35290 0.0 1022994
10 марта, ср
ср1023:00−8ююз34430 0.0 1027148
02:00−9ююз33530 0.0 1028143
05:00−10ююз33623 0.0 1027137
08:00−11ю346641 0.0 1026147
11:00−9ю345699 0.0 1026560
14:00−5ююз5103498 0.1 10222067
17:00−3юз9142631 0.0 10172418
20:00−6зюз464532 0.1 10171308
11 марта, чт
чт1123:00−8ююз3469100 0.3 1021493
02:00−9ю456571 0.3 1023264
05:00−9ююз226340 0.0 1023164
08:00−10ю237670 0.6 1026161
11:00−8ю336093 0.1 1029543
14:00−5ююз454072 0.1 10251636
17:00−4юз6102617 0.0 10211910
20:00−5юз5123513 0.0 10231833